Location: Dentlein
(49.1477°N, 10.4231°E)
Time: 20:15:18
(UTC+00:00)

IRAS Rocket - Pass Details

Date: 23 May 2024
Orbit: 846 x 877 km, 100.1° (Epoch: 23 June)

Event Time Altitude Azimuth Distance (km) Brightness Sun altitude
Rises 02:14:36 0° 17° (NNE) 3,439 8.7 -9.6°
Reaches altitude 10° 02:16:59 10° 18° (NNE) 2,494 7.8 -9.3°
Maximum altitude 02:22:32 86° 107° (ESE) 858 4.3 -8.7°
Drops below altitude 10° 02:28:00 10° 197° (SSW) 2,464 6.1 -8.1°
Enters shadow 02:28:52 - 198° (SSW) 2,803 6.4 -8.0°
